KO5S Weather Reports


time (UTC)temp
F
wind
direction
speed
knots
gust
knots
rain 1hr
in
rain 24hr
in
rain mn
in
humidity
%
barometer
mb
20260906040016 77 0.0 0.0 0.00 0.00 0.00 92 1008.3
20260906035015 77 0.0 0.0 0.00 0.00 0.00 92 1008.3
20260906034016 77 0.0 0.0 0.00 0.00 0.00 92 1008.2
20260906033015 77 0.0 0.0 0.00 0.00 0.00 92 1008.4
20260906032015 77 0.0 0.0 0.00 0.00 0.00 92 1008.3
20260906031016 78 0.0 0.0 0.00 0.00 0.00 92 1008.2
20260906030015 78 0.0 0.0 0.00 0.00 0.00 91 1008.0
20260906025018 78 0.0 0.0 0.00 0.00 0.00 91 1007.8
20260906024015 78 0.0 0.0 0.00 0.00 0.00 91 1007.7
20260906023015 78 0.0 0.0 0.00 0.00 0.00 91 1007.5
20260906022015 79 0.0 0.0 0.00 0.00 0.00 90 1007.3
20260906021015 79 0.0 0.0 0.00 0.00 0.00 90 1007.2
20260906020020 79 0.0 0.0 0.00 0.00 0.00 90 1007.1
20260906015015 79 0.0 0.0 0.00 0.00 0.00 90 1007.0
20260906014015 80 0.0 0.0 0.00 0.00 0.00 90 1007.0
20260906013017 80 0.0 0.0 0.00 0.00 0.00 89 1007.0
20260906012036 80 0.0 0.0 0.00 0.00 0.00 89 1007.2
20260906011015 81 0.0 0.0 0.00 0.00 0.00 89 1007.3
20260906010015 81 0.0 0.0 0.00 0.00 0.00 88 1007.2
20260906005016 82 0.0 0.0 0.00 0.00 0.00 88 1007.3
20260906004015 82 0.0 0.0 0.00 0.00 0.00 88 1007.3
20260906003018 83 0.0 0.0 0.00 0.00 0.00 87 1007.2
20260906002015 83 0.0 0.0 0.00 0.00 0.00 86 1007.2
20260906001058 84 0.0 0.0 0.00 0.00 0.00 85 1007.3
20260906000016 85 0.0 0.0 0.00 0.00 0.00 85 1007.2
20260905235015 85 0.0 0.0 0.00 0.00 0.00 84 1007.1
20260905234018 85 0.0 0.0 0.00 0.00 0.00 83 1007.2
20260905233015 86 0.0 0.0 0.00 0.00 0.00 82 1007.2
20260905232015 86 0.0 0.0 0.00 0.00 0.00 82 1007.2
20260905231016 86 0.0 0.0 0.00 0.00 0.00 82 1007.3
20260905230015 86 0.0 3.5 0.00 0.00 0.00 83 1007.2
20260905225015 86 188 0.0 3.5 0.00 0.00 0.00 84 1007.1
20260905224015 85 0.0 0.0 0.00 0.00 0.00 84 1007.1
20260905223015 85 0.0 0.0 0.00 0.00 0.00 84 1007.1
20260905222015 85 0.0 0.0 0.00 0.00 0.00 84 1007.2
20260905221017 85 0.0 0.0 0.00 0.00 0.00 84 1007.4
20260905220040 85 0.0 0.0 0.00 0.00 0.00 85 1007.3
20260905215015 85 0.0 0.0 0.00 0.00 0.00 84 1007.2
20260905214015 85 0.0 0.0 0.00 0.00 0.00 83 1007.3
20260905213015 85 0.0 0.0 0.00 0.00 0.00 83 1007.3
20260905212018 86 0.0 0.0 0.00 0.00 0.00 82 1007.6
20260905211015 87 0.0 0.9 0.00 0.00 0.00 80 1007.7
20260905210020 87 304 0.0 0.9 0.00 0.00 0.00 78 1007.5
20260905205017 88 0.0 6.1 0.00 0.00 0.00 77 1007.6
20260905204018 89 300 1.7 6.1 0.00 0.00 0.00 79 1007.7
20260905203020 90 345 0.0 2.6 0.00 0.00 0.00 80 1007.6
20260905202017 89 73 0.0 0.9 0.00 0.00 0.00 81 1007.6
20260905201017 89 0.0 4.3 0.00 0.00 0.00 80 1007.6
20260905200016 89 172 0.9 5.2 0.00 0.00 0.00 80 1007.7
20260905195017 89 182 0.9 5.2 0.00 0.00 0.00 81 1007.9
20260905194036 87 210 0.0 3.5 0.00 0.00 0.00 83 1008.2
20260905193015 86 0.0 0.0 0.00 0.00 0.00 85 1008.4
20260905192038 85 0.0 0.0 0.00 0.00 0.00 85 1008.5
20260905191018 85 0.0 0.0 0.00 0.00 0.00 84 1008.7
20260905190017 85 0.0 5.2 0.00 0.00 0.00 84 1008.8
20260905185017 85 166 1.7 5.2 0.00 0.00 0.00 84 1008.9
20260905184017 85 158 0.9 5.2 0.00 0.00 0.00 84 1009.1
20260905183017 84 171 1.7 5.2 0.00 0.00 0.00 84 1009.0
20260905182021 84 157 1.7 7.0 0.00 0.00 0.00 84 1009.1
20260905181019 85 148 0.9 7.0 0.00 0.00 0.00 83 1009.2
20260905180020 88 157 1.7 7.0 0.00 0.00 0.00 79 1009.3
20260905175018 89 0.0 0.0 0.00 0.80 0.00 77 1009.3
20260905174017 90 0.0 6.1 0.00 0.80 0.00 74 1009.3
20260905173017 91 333 0.9 6.1 0.00 0.80 0.00 75 1009.3
20260905172017 91 341 0.9 3.5 0.00 0.80 0.00 76 1009.4
20260905171016 90 320 0.0 5.2 0.00 0.80 0.00 78 1009.5
20260905170018 89 332 0.9 5.2 0.00 0.80 0.00 78 1009.6
20260905165038 87 304 0.0 5.2 0.00 0.80 0.00 79 1009.7
20260905164016 87 359 0.9 5.2 0.00 0.80 0.00 79 1009.8
20260905163101 88 314 0.0 7.0 0.00 0.80 0.00 79 1009.8
20260905162017 88 30 0.9 7.0 0.00 0.80 0.00 81 1009.8
20260905161018 87 316 0.9 8.7 0.00 0.80 0.00 81 1009.9
20260905160017 88 302 1.7 8.7 0.00 0.80 0.00 78 1009.9
20260905155037 89 0.0 3.5 0.00 0.80 0.00 77 1010.0
20260905154017 89 36 0.0 3.5 0.00 0.80 0.00 79 1009.9
20260905153016 88 304 0.0 3.5 0.00 0.80 0.00 80 1009.9
20260905152016 88 184 0.0 3.5 0.00 0.80 0.00 81 1009.9
20260905151041 86 0.0 0.0 0.00 0.80 0.00 83 1010.0
20260905150017 85 0.0 0.0 0.00 0.80 0.00 85 1010.0
20260905145019 84 0.0 0.0 0.00 0.82 0.00 89 1010.0
20260905144017 83 0.0 0.0 0.00 0.82 0.00 92 1010.0
20260905143016 82 0.0 0.0 0.00 0.82 0.00 94 1010.0
20260905142017 82 0.0 0.0 0.00 0.82 0.00 95 1010.0
20260905141037 81 0.0 0.0 0.00 0.82 0.00 95 1010.1
20260905140017 80 0.0 0.0 0.00 0.82 0.00 95 1010.1
20260905135019 79 0.0 0.0 0.00 0.82 0.00 95 1010.1
20260905134016 78 0.0 0.0 0.00 0.82 0.00 95 1010.0
20260905133018 77 0.0 0.0 0.00 0.82 0.00 95 1009.9
20260905132016 77 0.0 0.0 0.00 0.82 0.00 95 1009.9
20260905131041 76 0.0 0.0 0.00 0.82 0.00 95 1009.9
20260905130019 75 0.0 0.0 0.00 0.82 0.00 95 1009.8
20260905125017 75 0.0 0.0 0.00 0.82 0.00 95 1009.8
20260905124016 75 0.0 0.0 0.00 0.82 0.00 94 1009.8
20260905123017 75 0.0 0.0 0.00 0.82 0.00 95 1009.7
20260905122022 75 0.0 0.0 0.00 0.82 0.00 95 1009.7
20260905121016 75 0.0 0.0 0.00 0.82 0.00 94 1009.6
20260905120016 74 0.0 0.0 0.00 0.82 0.00 94 1009.6
20260905115017 75 0.0 0.0 0.00 0.82 0.00 94 1009.5
20260905114016 75 0.0 0.0 0.00 0.82 0.00 94 1009.4
20260905113016 75 0.0 0.0 0.00 0.82 0.00 94 1009.3
20260905112016 75 0.0 0.0 0.00 0.82 0.00 94 1009.3
20260905111016 75 0.0 0.0 0.00 0.82 0.00 94 1009.2
20260905110017 75 0.0 0.0 0.00 0.82 0.00 94 1009.3
20260905105016 75 0.0 0.0 0.00 0.82 0.00 94 1009.3
20260905104020 75 0.0 0.0 0.00 0.82 0.00 94 1009.4
20260905103019 74 0.0 0.0 0.00 0.82 0.00 94 1009.4
20260905102017 74 0.0 0.0 0.00 0.82 0.00 94 1009.4
20260905101016 74 0.0 0.0 0.00 0.82 0.00 94 1009.2
20260905100037 74 0.0 0.0 0.00 0.82 0.00 94 1009.3
20260905095016 74 0.0 0.0 0.00 0.82 0.00 94 1009.3
20260905094018 74 0.0 0.0 0.00 0.82 0.00 94 1009.2
20260905093019 74 0.0 0.0 0.00 0.82 0.00 94 1009.1
20260905092016 74 0.0 0.0 0.00 0.82 0.00 94 1009.2
20260905091016 74 0.0 0.0 0.00 0.82 0.00 94 1009.1
20260905090017 74 0.0 0.0 0.00 0.82 0.00 94 1009.1
20260905085016 74 0.0 0.0 0.00 0.82 0.00 94 1009.1
20260905084037 74 0.0 0.0 0.00 0.82 0.00 94 1009.1
20260905083016 74 0.0 0.0 0.00 0.82 0.00 94 1009.0
20260905082016 74 0.0 0.0 0.00 0.82 0.00 94 1009.0
20260905081017 74 0.0 0.0 0.00 0.82 0.00 94 1009.0
20260905080017 74 0.0 0.0 0.00 0.82 0.00 94 1009.0
20260905075041 73 0.0 0.0 0.00 0.82 0.00 94 1009.1
20260905074021 74 0.0 0.0 0.00 0.82 0.00 94 1009.0
20260905073016 74 0.0 0.0 0.00 0.82 0.00 94 1009.0
20260905072018 74 0.0 0.0 0.00 0.82 0.00 94 1009.0
20260905071018 74 0.0 0.0 0.00 0.82 0.00 94 1008.9
20260905070017 74 0.0 0.0 0.00 0.82 0.00 93 1008.8
20260905065019 74 0.0 0.0 0.00 0.82 0.00 94 1008.8
20260905064016 74 0.0 0.0 0.00 0.82 0.00 94 1008.7
20260905063019 74 0.0 0.0 0.00 0.82 0.00 94 1008.7
20260905062016 74 0.0 0.0 0.00 0.82 0.00 93 1008.8
20260905061018 75 0.0 0.0 0.00 0.82 0.00 93 1008.8
20260905060018 75 0.0 0.0 0.00 0.82 0.00 93 1008.8
20260905055018 75 0.0 0.0 0.00 0.82 0.00 93 1008.8
20260905054017 75 0.0 0.0 0.00 0.82 0.00 93 1008.9
20260905053016 75 0.0 0.0 0.00 0.82 0.00 93 1009.1
20260905052036 75 0.0 0.0 0.00 0.82 0.00 93 1009.1
20260905051039 75 0.0 0.0 0.00 0.82 0.00 93 1009.1
20260905050019 75 0.0 0.0 0.00 0.82 0.82 93 1009.2
20260905045015 75 0.0 0.0 0.00 0.82 0.82 93 1009.3
20260905044015 75 0.0 0.0 0.00 0.82 0.82 93 1009.4
20260905043017 75 0.0 0.0 0.00 0.82 0.82 93 1009.5
20260905042016 75 0.0 0.0 0.00 0.82 0.82 93 1009.6
20260905041015 75 0.0 0.0 0.00 0.82 0.82 93 1009.6